Погода в Реконструкторе

Россия / Ростовская область     47°18′15″N   39°56′35″E
темп.,
°C
ветер,
м/с
пор.,
м/с
влажн.,
%
обл.,
%
осадки,
мм/ч
давл.,
гПа
погр.,
м
22 апреля, чт
чт2200:00+9зюз23845 0.0 102142
03:00+8зюз228818 0.0 102126
06:00+8юз11886 0.0 102211
09:00+13ююз127089 0.0 1023478
12:00+16ю3357100 0.0 10221252
15:00+17ю3451100 0.3 10211716
18:00+15юз2365100 0.4 1021118
21:00+12з3679100 1.2 1022135
23 апреля, пт
пт2300:00+11ююз2281100 0.3 102364
03:00+10зюз348462 0.3 102397
06:00+8зюз35890 0.0 1023116
09:00+13зюз45700 0.0 1023674
12:00+16з46545 0.0 10221648
15:00+17з675120 0.1 10211889
18:00+15з46625 0.0 1020488
21:00+11зюз3573100 0.0 102097
24 апреля, сб
сб2400:00+11юз3678100 0.0 1019161
03:00+10юз4107692 0.0 1018295
06:00+9юз498369 0.0 1017287
09:00+13зюз686858 0.0 1017803
12:00+15зюз795996 0.3 10171670
15:00+15з795690 0.4 10171668
18:00+13зюз58615 0.1 1017640
21:00+10зюз511685 0.1 1019337
25 апреля, вс
вс2500:00+9зсз611655 0.0 1020440
03:00+6зсз3765100 0.0 1021202
06:00+5зсз3668100 0.0 1022204
09:00+8ссз3450100 0.0 1022930
12:00+11ссз3342100 0.0 10221459
15:00+11с2240100 0.0 10211586
18:00+11вюв1151100 0.0 1021212
21:00+8в1152100 0.0 102114
26 апреля, пн
пн2600:00+7всв1257100 0.0 102011
03:00+5всв226496 0.0 102012
06:00+5всв2273100 0.0 101935
09:00+9в2263100 0.0 1019441
12:00+11вюв2256100 0.0 10181204
15:00+13ююв115170 0.0 10161503
18:00+13юз125330 0.0 10161080
21:00+8юз466797 0.0 1016125